Location: B�rgermoos
(47.6500°N, 9.0667°E)
Time: 23:06:52
(UTC+00:00)

Spot 2 Rocket - Pass Details

Date: 18 September 2020
Orbit: 758 x 771 km, 98.6° (Epoch: 31 October)

Event Time Altitude Azimuth Distance (km) Brightness Sun altitude
Exits shadow 19:48:04 39° 61° (ENE) 1,127 4.1 -23.1°
Drops below altitude 10° 19:52:33 10° 359° (N) 2,299 6.4 -23.8°
Sets 19:54:58 0° 352° (N) 3,229 7.3 -24.1°
